International Skating Union - Official Site

Essent ISU World Cup Hamar
November 27-28, 2010

Draw | Lap Times | Index | World Cup

Referee: Jacques  DE KONING  (NED)
Starter: Sebastiaan  ZAMANI  (SWE)
StartTime: EndTime: Air Temp: Ice Temp: Humidity:
14:53 15:45 16.1℃ -10.7℃ 16.2
Result 5000m Ladies Division A
Rankings as of Nov 27 2010 4:52PM
Rank: No.: Name: Nation: Time: Behind: Points:
1 11 Stephanie  BECKERT GER GER 6:59.18200m - 21.34 - (21.3)
600m - 54.35 - (33.0)
1000m - 1:27.57 - (33.2)
1400m - 2:00.78 - (33.2)
1800m - 2:33.66 - (32.8)
2200m - 3:06.45 - (32.7)
2600m - 3:39.40 - (32.9)
3000m - 4:12.90 - (33.5)
3400m - 4:46.11 - (33.2)
3800m - 5:19.52 - (33.4)
4200m - 5:52.82 - (33.3)
4600m - 6:26.49 - (33.6)
5000m - 6:59.18 - (32.7)
100
2 8 Martina  SÁBLIKOVÁ CZE CZE 7:03.95200m - 20.55 - (20.5)
600m - 53.04 - (32.4)
1000m - 1:25.68 - (32.6)
1400m - 1:58.87 - (33.1)
1800m - 2:32.25 - (33.3)
2200m - 3:05.39 - (33.1)
2600m - 3:38.69 - (33.3)
3000m - 4:12.85 - (34.1)
3400m - 4:47.13 - (34.2)
3800m - 5:21.27 - (34.1)
4200m - 5:55.02 - (33.7)
4600m - 6:29.44 - (34.4)
5000m - 7:03.95 - (34.5)
4.77 80
3 16 Eriko  ISHINO JPN JPN 7:06.70200m - 20.71 - (20.7)
600m - 53.20 - (32.4)
1000m - 1:26.37 - (33.1)
1400m - 1:59.77 - (33.4)
1800m - 2:33.48 - (33.7)
2200m - 3:07.01 - (33.5)
2600m - 3:40.69 - (33.6)
3000m - 4:14.53 - (33.8)
3400m - 4:48.65 - (34.1)
3800m - 5:22.92 - (34.2)
4200m - 5:57.52 - (34.6)
4600m - 6:32.22 - (34.7)
5000m - 7:06.70 - (34.4)
7.52 70
4 47 Jilleanne  ROOKARD USA USA 7:08.25200m - 21.26 - (21.2)
600m - 53.61 - (32.3)
1000m - 1:26.76 - (33.1)
1400m - 2:00.08 - (33.3)
1800m - 2:33.81 - (33.7)
2200m - 3:07.14 - (33.3)
2600m - 3:40.46 - (33.3)
3000m - 4:14.22 - (33.7)
3400m - 4:48.44 - (34.2)
3800m - 5:22.83 - (34.3)
4200m - 5:57.70 - (34.8)
4600m - 6:33.07 - (35.3)
5000m - 7:08.25 - (35.1)
9.07 60
5 15 Masako  HOZUMI JPN JPN 7:13.19200m - 20.84 - (20.8)
600m - 53.56 - (32.7)
1000m - 1:26.77 - (33.2)
1400m - 2:00.44 - (33.6)
1800m - 2:34.18 - (33.7)
2200m - 3:08.19 - (34.0)
2600m - 3:42.47 - (34.2)
3000m - 4:16.98 - (34.5)
3400m - 4:52.45 - (35.4)
3800m - 5:28.04 - (35.5)
4200m - 6:02.91 - (34.8)
4600m - 6:38.12 - (35.2)
5000m - 7:13.19 - (35.0)
14.01 50
6 6 Brittany  SCHUSSLER CAN CAN 7:13.24200m - 20.72 - (20.7)
600m - 53.04 - (32.3)
1000m - 1:26.20 - (33.1)
1400m - 2:00.46 - (34.2)
1800m - 2:34.40 - (33.9)
2200m - 3:08.48 - (34.0)
2600m - 3:42.15 - (33.6)
3000m - 4:16.46 - (34.3)
3400m - 4:50.98 - (34.5)
3800m - 5:25.97 - (34.9)
4200m - 6:01.52 - (35.5)
4600m - 6:37.41 - (35.8)
5000m - 7:13.24 - (35.8)
14.06 45
7 4 Cindy  KLASSEN CAN CAN 7:13.76200m - 20.64 - (20.6)
600m - 53.39 - (32.7)
1000m - 1:27.42 - (34.0)
1400m - 2:01.11 - (33.6)
1800m - 2:34.85 - (33.7)
2200m - 3:08.44 - (33.5)
2600m - 3:42.06 - (33.6)
3000m - 4:15.69 - (33.6)
3400m - 4:49.59 - (33.9)
3800m - 5:23.76 - (34.1)
4200m - 5:59.03 - (35.2)
4600m - 6:35.51 - (36.4)
5000m - 7:13.76 - (38.2)
14.58 40
8 36 Ida  NJÅTUN NOR NOR 7:15.53200m - 20.27 - (20.2)
600m - 53.17 - (32.9)
1000m - 1:27.09 - (33.9)
1400m - 2:00.71 - (33.6)
1800m - 2:34.52 - (33.8)
2200m - 3:08.32 - (33.8)
2600m - 3:42.53 - (34.2)
3000m - 4:17.20 - (34.6)
3400m - 4:52.38 - (35.1)
3800m - 5:27.52 - (35.1)
4200m - 6:03.27 - (35.7)
4600m - 6:39.41 - (36.1)
5000m - 7:15.53 - (36.1)
16.35 35
9 17 Shiho  ISHIZAWA JPN JPN 7:16.43200m - 20.67 - (20.6)
600m - 52.95 - (32.2)
1000m - 1:26.54 - (33.6)
1400m - 2:00.60 - (34.0)
1800m - 2:34.59 - (33.9)
2200m - 3:08.87 - (34.2)
2600m - 3:43.40 - (34.5)
3000m - 4:18.83 - (35.4)
3400m - 4:54.05 - (35.2)
3800m - 5:29.65 - (35.6)
4200m - 6:05.40 - (35.7)
4600m - 6:40.96 - (35.5)
5000m - 7:16.43 - (35.4)
17.25 30
10 40 Luiza  ZLOTKOWSKA POL POL 7:21.84200m - 21.06 - (21.0)
600m - 54.48 - (33.4)
1000m - 1:28.43 - (33.9)
1400m - 2:02.89 - (34.4)
1800m - 2:37.27 - (34.3)
2200m - 3:12.14 - (34.8)
2600m - 3:46.82 - (34.6)
3000m - 4:22.20 - (35.3)
3400m - 4:57.87 - (35.6)
3800m - 5:33.30 - (35.4)
4200m - 6:09.22 - (35.9)
4600m - 6:46.12 - (36.9)
5000m - 7:21.84 - (35.7)
22.66 25
11 10 Jennifer  BAY GER GER 7:21.93200m - 20.92 - (20.9)
600m - 53.59 - (32.6)
1000m - 1:27.75 - (34.1)
1400m - 2:02.37 - (34.6)
1800m - 2:37.28 - (34.9)
2200m - 3:12.22 - (34.9)
2600m - 3:47.41 - (35.1)
3000m - 4:22.97 - (35.5)
3400m - 4:58.99 - (36.0)
3800m - 5:34.77 - (35.7)
4200m - 6:10.96 - (36.1)
4600m - 6:46.66 - (35.7)
5000m - 7:21.93 - (35.2)
22.75 20
12 24 Marije  JOLING NED NED 7:28.90200m - 20.78 - (20.7)
600m - 54.07 - (33.2)
1000m - 1:27.51 - (33.4)
1400m - 2:01.81 - (34.3)
1800m - 2:37.00 - (35.1)
2200m - 3:12.78 - (35.7)
2600m - 3:48.94 - (36.1)
3000m - 4:25.52 - (36.5)
3400m - 5:02.08 - (36.5)
3800m - 5:38.84 - (36.7)
4200m - 6:15.45 - (36.6)
4600m - 6:52.27 - (36.8)
5000m - 7:28.90 - (36.6)
29.72 15